Wind_Speed
75 77 80 82 84 85 86 87 87 87 87 86 85 85 85 84 84 85 85 85 85 84 82 80 77 75 72 70 66 64 62 62 59 55 52 51 51 52 52 50 48 44 41
71 75 78 82 84 86 88 89 90 90 91 92 92 91 90 91 90 89 89 90 89 90 88 85 83 81 79 77 74 72 69 66 64 59 56 54 53 55 54 53 50 46 42
69 74 79 84 87 90 93 94 94 94 94 94 95 95 94 93 95 96 95 94 94 94 93 90 88 86 84 81 78 75 73 70 67 65 61 56 55 57 56 56 54 49 45
66 72 78 82 84 87 90 94 97 101 102 103 102 102 101 100 98 97 97 97 97 97 98 96 93 90 87 86 83 80 76 73 71 68 65 60 57 59 59 58 57 52 48
65 67 72 77 85 93 96 98 100 104 107 108 108 109 109 108 107 105 102 102 102 103 101 101 98 94 92 91 88 85 81 77 74 72 69 65 62 61 60 61 60 54 50
77 78 79 80 81 86 94 101 106 110 112 115 117 119 117 115 113 110 110 109 107 106 105 103 104 102 96 93 92 89 85 82 78 74 72 69 65 65 63 61 59 56 53
87 88 89 87 89 91 93 97 100 105 113 117 121 125 128 128 124 122 119 117 116 113 111 109 105 104 102 99 97 91 87 84 81 79 75 72 70 68 65 63 60 58 56
97 97 95 93 93 94 97 98 101 104 108 112 116 123 129 131 132 132 130 128 126 123 120 115 112 109 108 104 98 96 91 87 82 82 78 76 72 70 66 63 61 59 58
107 104 100 97 94 93 95 97 99 103 108 110 115 121 125 127 128 130 133 133 132 129 125 124 120 117 113 111 106 98 91 88 85 82 79 76 74 70 65 63 62 60 59
110 107 104 101 100 99 99 100 101 101 105 109 111 116 121 126 127 128 130 131 132 130 129 124 122 123 121 118 115 106 98 90 84 83 80 76 75 69 65 64 63 61 58
112 109 105 102 102 101 100 100 102 103 104 104 101 105 108 114 119 123 125 127 128 128 126 122 118 117 119 123 121 114 106 97 89 82 79 79 77 70 65 64 64 61 61
111 107 103 102 101 99 96 94 95 97 98 98 99 101 101 101 101 104 106 111 112 119 122 121 117 111 109 114 120 120 111 106 97 89 81 78 79 72 67 65 64 61 60
111 105 102 100 99 97 94 92 91 92 93 93 94 95 96 94 94 95 94 98 99 101 106 107 107 106 104 104 111 117 116 109 105 95 86 79 72 75 74 70 69 66 63
109 105 101 97 95 94 93 91 92 89 88 85 85 86 87 86 85 87 86 89 90 90 86 90 91 91 90 93 97 107 112 113 108 101 91 83 72 69 68 68 67 68 66
108 104 99 95 94 96 96 93 90 85 86 84 83 81 79 78 79 80 82 84 83 84 82 79 79 76 75 82 88 96 101 112 105 105 95 86 78 69 66 66 66 64 65
110 104 99 95 96 99 92 86 88 85 85 80 76 76 72 69 69 68 70 72 71 74 75 73 72 70 67 72 85 92 94 104 103 100 96 87 79 71 69 66 63 62 62
109 101 97 96 96 92 88 84 78 77 75 72 70 68 65 62 62 58 58 59 61 64 64 66 66 64 62 70 85 92 96 99 98 91 90 84 79 77 73 67 64 61 60
111 104 100 100 99 90 85 78 70 68 66 64 61 59 57 54 52 48 50 53 55 55 53 56 61 61 59 63 78 86 92 93 90 86 86 83 77 78 75 69 64 60 61
111 103 102 101 96 88 77 68 63 63 61 57 55 53 49 43 39 40 43 45 46 47 48 49 53 54 54 59 71 80 85 85 85 80 82 81 77 76 74 71 65 63 59
107 102 101 96 91 82 72 65 59 56 55 48 50 45 36 33 31 34 37 38 39 40 42 42 45 51 55 61 66 74 75 80 77 77 80 80 76 73 74 71 67 63 61
100 98 93 89 82 71 65 60 53 52 48 43 43 36 27 27 26 28 29 30 33 35 36 39 41 53 58 62 65 65 70 73 71 74 78 78 75 73 70 68 65 63 62
101 98 91 84 79 68 58 51 50 46 42 40 37 30 24 23 22 23 25 28 28 31 35 41 54 57 58 61 65 66 68 68 69 74 75 73 71 69 66 63 61 61 62
99 92 84 73 70 61 52 44 43 38 36 34 29 24 21 20 19 21 24 27 30 34 43 54 58 57 63 62 60 63 64 67 67 69 68 68 67 63 60 58 59 60 61
91 84 74 66 59 53 47 41 36 32 27 25 21 18 20 17 16 20 25 28 34 46 55 56 60 63 61 60 60 60 61 57 58 61 65 63 60 57 54 55 55 56 56
83 77 67 60 54 46 41 36 31 26 19 17 14 13 20 15 17 23 29 34 46 53 57 59 62 63 58 56 56 56 56 58 58 61 59 57 56 54 52 50 51 49 50
78 69 61 51 45 41 35 30 25 20 14 11 8 12 17 17 21 28 32 44 52 57 60 62 61 62 61 60 59 58 54 54 57 54 54 54 52 49 49 47 45 45 44
Wind_Direction
286 285 283 281 280 279 278 277 276 275 275 274 272 272 270 267 267 268 268 267 268 268 268 268 269 269 270 270 270 271 272 275 277 278 278 281 282 286 291 296 299 299 292
289 288 287 285 283 281 280 279 277 275 274 272 271 270 268 268 267 266 267 267 266 266 266 266 266 266 266 267 268 269 270 271 272 274 275 276 278 282 287 291 294 295 287
291 291 289 288 287 287 285 283 281 279 277 275 273 271 268 266 265 265 264 264 265 265 264 263 263 264 264 264 265 265 267 268 269 271 272 272 275 279 282 287 290 291 286
298 297 294 289 285 283 282 282 281 280 278 276 274 273 271 268 265 263 262 261 261 261 263 263 262 261 261 261 262 263 263 265 266 268 268 270 271 274 278 283 286 286 285
297 295 293 287 283 279 277 276 275 275 275 274 273 272 270 269 268 266 263 261 261 261 260 262 262 260 260 259 259 260 260 261 263 265 266 267 268 270 274 279 283 283 283
303 298 293 289 282 276 273 271 270 270 270 270 271 271 269 268 267 265 265 264 262 260 260 260 261 261 260 258 258 258 258 258 260 262 263 264 265 268 273 276 278 279 281
308 305 300 295 289 284 280 276 274 271 268 266 266 267 268 268 266 265 264 263 263 261 260 261 259 260 260 258 258 257 257 257 257 257 259 262 262 266 269 271 273 275 279
311 306 302 297 292 288 284 281 278 275 273 271 269 267 265 265 266 266 264 262 261 262 262 259 260 259 259 259 258 256 254 255 256 255 256 258 260 262 265 268 270 273 275
312 307 302 298 293 288 284 281 277 274 271 269 269 269 267 266 265 264 264 264 262 260 257 257 258 257 257 260 260 258 255 253 252 254 255 256 257 259 262 264 265 272 271
310 308 305 303 299 295 290 286 281 276 273 270 267 266 266 266 265 264 264 263 263 263 261 257 253 254 256 256 258 259 257 255 252 249 251 254 255 257 259 261 264 268 267
314 311 309 307 304 301 296 292 288 286 283 280 275 270 266 264 264 263 264 264 265 264 262 260 257 254 251 252 254 257 257 256 253 250 248 247 251 254 256 258 261 264 262
313 312 310 308 304 299 295 292 288 285 283 282 280 278 275 271 268 265 264 262 259 259 260 260 258 255 250 247 248 251 253 253 253 252 248 246 247 249 251 255 258 261 261
313 311 311 309 305 302 298 295 291 288 286 282 279 277 274 272 270 268 265 263 261 258 257 257 255 252 251 246 243 245 247 249 251 249 248 245 244 245 248 251 255 258 260
313 313 312 310 307 305 301 298 295 293 289 286 282 279 276 273 269 266 262 260 259 258 255 254 252 249 244 241 239 239 242 243 244 245 244 245 245 245 248 249 252 256 258
316 315 314 313 310 308 306 303 301 298 294 290 286 281 277 273 270 267 264 261 258 257 255 251 251 247 239 232 230 233 234 237 240 242 241 241 243 244 246 249 251 255 258
320 319 316 314 312 310 307 305 303 299 294 291 287 283 280 276 270 267 264 262 258 254 250 248 245 242 235 226 221 225 227 231 233 236 239 238 239 241 243 247 251 255 259
321 319 316 314 313 310 308 306 301 295 291 289 284 282 280 277 273 270 265 262 257 251 246 242 238 236 230 221 216 219 222 225 227 229 234 235 235 237 241 244 249 254 258
323 320 317 318 315 312 309 307 302 294 290 287 283 281 280 277 276 269 262 256 252 248 242 237 231 227 223 217 215 218 221 222 222 223 228 231 232 233 237 242 245 251 257
321 319 319 317 314 313 312 309 302 296 293 288 285 281 281 277 270 262 255 250 244 240 235 229 223 217 212 209 211 215 220 218 218 217 222 227 229 230 233 238 243 249 256
320 320 319 316 314 315 312 307 302 296 290 291 283 280 276 268 258 251 246 240 236 230 226 220 211 204 199 205 207 213 213 214 214 213 217 223 226 228 231 236 242 248 255
320 319 318 317 314 313 310 306 301 293 294 288 282 276 264 255 248 242 233 228 222 217 212 206 193 190 194 199 206 206 208 210 209 209 213 217 221 225 230 235 241 246 253
322 321 321 319 315 316 313 309 302 300 295 288 282 270 253 246 236 226 218 213 206 203 195 187 184 187 190 194 200 200 202 205 204 205 208 212 217 223 229 234 239 245 249
321 322 322 320 317 318 314 309 302 299 297 291 280 264 251 234 221 207 202 192 187 187 176 176 180 182 188 193 192 196 198 202 201 202 205 209 214 220 226 232 238 243 249
323 325 323 320 316 316 316 313 309 306 304 292 282 267 245 222 208 190 187 176 174 172 176 175 177 182 184 185 191 193 196 199 197 199 203 206 210 216 224 231 237 243 251
326 326 325 323 323 322 319 315 310 305 299 289 280 260 231 206 186 182 175 166 168 173 172 172 176 177 176 177 180 182 185 187 191 197 200 203 208 214 223 231 238 244 252
330 328 328 331 332 328 325 321 313 306 297 287 268 239 212 186 174 173 166 164 172 169 171 171 171 168 168 170 174 178 179 181 190 191 193 199 207 215 222 229 236 244 251
Height
10816 10810 10804 10798 10793 10789 10785 10782 10782 10782 10780 10781 10782 10781 10779 10782 10780 10776 10775 10774 10772 10775 10776 10779 10780 10781 10782 10783 10786 10787 10787 10786 10788 10790 10790 10789 10787 10786 10785 10782 10780 10777 10775
10800 10792 10785 10778 10772 10767 10763 10760 10758 10757 10757 10755 10753 10755 10756 10753 10754 10756 10753 10751 10752 10751 10755 10758 10760 10761 10763 10766 10769 10771 10772 10774 10774 10777 10778 10778 10776 10773 10774 10771 10770 10768 10767
10786 10777 10769 10761 10752 10742 10735 10731 10728 10727 10728 10727 10725 10723 10725 10729 10728 10726 10729 10729 10726 10726 10728 10733 10738 10741 10743 10745 10749 10753 10756 10758 10761 10761 10765 10766 10765 10761 10761 10761 10759 10757 10756
10778 10767 10755 10745 10734 10722 10712 10704 10698 10694 10693 10690 10690 10690 10690 10692 10696 10700 10699 10701 10700 10700 10700 10706 10713 10717 10721 10723 10727 10733 10737 10741 10744 10747 10748 10752 10751 10749 10748 10749 10748 10747 10745
10763 10753 10740 10726 10714 10703 10693 10685 10674 10664 10654 10650 10651 10651 10652 10655 10659 10662 10668 10671 10673 10672 10675 10677 10682 10693 10697 10701 10705 10711 10717 10723 10726 10731 10732 10736 10736 10735 10736 10735 10736 10736 10734
10736 10725 10714 10702 10688 10677 10667 10657 10648 10637 10630 10621 10611 10606 10612 10616 10620 10626 10629 10634 10641 10644 10648 10654 10655 10660 10671 10675 10679 10688 10696 10702 10708 10713 10716 10718 10721 10720 10723 10723 10722 10722 10721
10709 10696 10682 10670 10655 10644 10637 10628 10619 10611 10602 10593 10586 10577 10570 10572 10579 10585 10590 10595 10600 10607 10613 10619 10629 10632 10639 10647 10654 10664 10672 10680 10688 10692 10697 10701 10703 10705 10708 10709 10709 10708 10708
10677 10664 10652 10640 10626 10614 10602 10596 10586 10576 10565 10557 10550 10543 10542 10539 10537 10538 10545 10553 10561 10568 10575 10585 10592 10602 10607 10614 10626 10637 10648 10656 10665 10671 10678 10681 10685 10688 10692 10694 10694 10694 10693
10642 10630 10616 10605 10593 10581 10569 10559 10550 10539 10527 10522 10514 10504 10496 10496 10498 10498 10501 10505 10513 10527 10542 10548 10558 10565 10573 10581 10592 10606 10621 10633 10642 10649 10657 10662 10666 10671 10676 10678 10679 10680 10680
10607 10591 10575 10560 10545 10531 10521 10513 10504 10499 10490 10482 10477 10468 10461 10454 10454 10454 10456 10461 10468 10478 10491 10510 10525 10533 10540 10549 10556 10573 10590 10606 10618 10628 10637 10643 10645 10653 10660 10662 10664 10665 10666
10574 10557 10538 10518 10501 10488 10478 10468 10455 10445 10437 10433 10433 10427 10425 10420 10416 10415 10418 10423 10424 10430 10441 10459 10481 10499 10513 10520 10527 10539 10556 10573 10589 10604 10614 10621 10626 10635 10642 10646 10648 10650 10652
10548 10527 10507 10489 10472 10458 10445 10433 10421 10410 10400 10395 10389 10381 10378 10376 10375 10374 10380 10381 10390 10388 10397 10410 10429 10454 10472 10487 10499 10508 10525 10540 10558 10574 10590 10600 10607 10617 10623 10628 10632 10635 10638
10517 10499 10479 10459 10437 10419 10407 10396 10385 10373 10365 10358 10351 10343 10337 10336 10336 10336 10341 10342 10348 10356 10359 10370 10387 10410 10427 10447 10464 10476 10490 10513 10528 10546 10564 10575 10588 10598 10604 10610 10616 10619 10622
10486 10466 10447 10427 10407 10389 10372 10360 10347 10336 10327 10321 10312 10306 10301 10301 10303 10302 10305 10308 10312 10319 10332 10338 10350 10369 10389 10406 10428 10442 10463 10484 10498 10517 10539 10553 10568 10578 10587 10593 10597 10602 10606
10454 10430 10411 10393 10376 10355 10339 10324 10310 10302 10290 10284 10277 10270 10268 10268 10267 10269 10271 10274 10284 10291 10298 10310 10321 10338 10357 10374 10394 10411 10434 10452 10471 10491 10512 10532 10547 10560 10569 10575 10579 10585 10590
10421 10402 10382 10363 10344 10325 10312 10301 10282 10270 10255 10252 10247 10238 10237 10239 10237 10241 10242 10246 10254 10261 10271 10284 10295 10309 10328 10346 10364 10382 10403 10419 10444 10468 10490 10511 10529 10543 10549 10557 10565 10571 10574
10389 10371 10352 10334 10320 10302 10285 10273 10261 10244 10234 10226 10217 10213 10213 10211 10211 10216 10219 10221 10226 10233 10245 10258 10273 10287 10305 10320 10338 10354 10371 10392 10422 10449 10471 10488 10511 10523 10533 10541 10549 10556 10557
10356 10339 10320 10305 10285 10272 10257 10245 10231 10217 10211 10202 10196 10192 10190 10190 10191 10193 10195 10199 10205 10214 10226 10238 10252 10269 10286 10304 10320 10337 10351 10374 10402 10432 10452 10470 10490 10505 10515 10527 10535 10540 10544
10330 10312 10294 10277 10258 10244 10233 10220 10207 10195 10188 10181 10176 10172 10172 10172 10172 10172 10175 10180 10188 10197 10208 10221 10235 10254 10273 10289 10304 10322 10338 10363 10386 10414 10434 10455 10471 10486 10501 10511 10521 10526 10533
10306 10288 10272 10252 10231 10221 10209 10198 10187 10176 10168 10166 10158 10155 10156 10156 10156 10157 10161 10167 10175 10186 10196 10209 10224 10242 10260 10277 10295 10309 10332 10351 10376 10400 10419 10439 10457 10472 10484 10498 10508 10516 10520
10289 10270 10251 10230 10212 10201 10189 10178 10168 10157 10153 10148 10144 10142 10143 10143 10143 10146 10151 10157 10166 10176 10188 10201 10219 10235 10251 10268 10283 10307 10326 10344 10365 10386 10405 10424 10443 10458 10473 10487 10498 10503 10507
10263 10244 10227 10210 10189 10180 10172 10163 10151 10145 10140 10135 10133 10131 10132 10131 10134 10137 10143 10150 10160 10171 10183 10197 10211 10227 10245 10262 10280 10300 10316 10335 10355 10374 10394 10415 10433 10449 10465 10478 10486 10490 10495
10242 10224 10208 10194 10173 10164 10155 10148 10137 10132 10128 10126 10123 10123 10124 10123 10126 10131 10137 10145 10155 10169 10181 10193 10207 10225 10241 10256 10280 10296 10313 10329 10348 10369 10389 10407 10424 10442 10457 10466 10472 10478 10485
10226 10209 10192 10176 10162 10149 10140 10133 10127 10123 10120 10117 10116 10117 10118 10117 10122 10128 10134 10143 10156 10167 10178 10193 10208 10222 10241 10259 10276 10295 10311 10331 10350 10369 10384 10402 10420 10434 10446 10453 10461 10469 10475
10212 10192 10176 10162 10150 10138 10129 10122 10117 10114 10111 10109 10110 10110 10112 10113 10120 10126 10134 10144 10156 10165 10179 10193 10209 10225 10244 10263 10279 10297 10312 10328 10346 10362 10382 10398 10412 10424 10434 10444 10452 10461 10467
10198 10180 10164 10151 10139 10130 10122 10115 10110 10107 10104 10104 10103 10106 10109 10113 10119 10127 10136 10147 10154 10169 10182 10196 10212 10227 10243 10261 10278 10295 10315 10330 10344 10362 10377 10391 10403 10416 10427 10436 10445 10454 10459